{"data":{"norad_id":64549,"intl_designator":"2025-135X","name":"ROADS 2","alt_names":[],"object_type":"PAYLOAD","status":"ACTIVE","operator":null,"country":"US","launch_date":"2025-06-23","launch_site_code":"AFWTR","launch_vehicle":null,"mission":null,"orbit_class":"UNKNOWN","rcs_meters":null,"size_class":null,"mass_kg":null,"dimensions":null,"purposes":[],"wikipedia_slug":null,"has_3d_model":false,"image_url":null,"decayed_at":null,"tle_current":{"epoch":"2026-09-21T21:01:10.893792Z","epoch_age_seconds":62701,"freshness":"FRESH","line1":"1 64549U 25135X   26264.87582053  .00004633  00000+0  18933-3 0  9994","line2":"2 64549  97.4864  20.9069 0002673 107.2791 252.8739 15.24868152 69642","mean_motion":15.24868152,"eccentricity":0.0002673,"inclination_deg":97.4864,"raan_deg":20.9069,"arg_perigee_deg":107.2791,"mean_anomaly_deg":252.8739,"bstar":0.00018933,"rev_number":6964,"period_min":94.434394089175,"perigee_km":489.34520766326,"apogee_km":493.01754526732,"semimajor_km":6869.3183764653,"source":"CELESTRAK","updated_at":"2026-09-22T09:00:29.843964Z"}}}